Location: *
(51.0333°S, 178.4667°E)
Time: 10:54:44
(UTC+00:00)

STARLINK-25 - Pass Details

Date: 15 November 2019
Orbit: 528 x 531 km, 53.0° (Epoch: 10 December)

Event Time Altitude Azimuth Distance (km) Brightness Sun altitude
Rises 11:13:49 0° 252° (WSW) 2,694 7.5 -20.0°
Reaches altitude 10° 11:16:03 10° 252° (WSW) 1,802 6.6 -20.1°
Maximum altitude 11:20:08 78° 337° (NNW) 556 3.4 -20.2°
Enters shadow 11:20:57 55° 50° (NE) 652 3.6 -20.2°
